STARLINK-3740, 52265

Orbit data source: Space-Track

STARLINK-3740, 52265 is a payload satellite owned by SpaceX/Seattle (US) in LEO that was launched on Thu, 21 Apr 2022 UTC via an FALCON 9 launch vehicle from the Air Force Eastern Test Range (AFETR). Payload-class satellites include a variety of spacecraft equipped with specific instruments for various scientific and technological missions. These include communications satellites like Starlink; space stations such as the ISS; scientific satellites like the Hubble; Earth observation satellites from companies like Planet Labs, Umbra, and HawkEye 360; GPS; miniature CubeSats for education and research; and military/defense satellites.

Loading next visibility...
Identifier
52265, 2022-041E
Orbit
LEO
Country
Flag of USUS
Related business
Manufacturer
SpaceX/Seattle
Mission
Operational Commercial Communications
Bus & Motor
STARLINK, Unknown motor
Mass
297 kg wet, ~275 kg dry
Launch date (UTC)
2022-04-21 (4 years ago)
Launch vehicle
FALCON 9
Launch site
Air Force Eastern Test Range (AFETR)
Object type
Payload
Rocket body
Debris
Shape & HBR
Box + 1 Pan, 10.1 m
Radar Cross Section
11.087 m², Large (>1 m²)

Expand to show TLE details & history
Last TLE update: 2 days ago

TLE from 2 days ago
0 STARLINK-3740
1 52265U 22041E   26234.98491333  .00000644  00000-0  29367-4 0  9991
2 52265  53.1605  73.1734 0001100  86.9586 273.1543 15.35398869239591
Epoch: 2026-08-22T23:38Z
TLE epoch observation values (Epoch: 2026-08-22T23:38:16.511Z)
Latitude
-0.00003°
Longitude
107.31711°
Altitude
460.596 km
Speed
7.638 km/s
True Right ascension
04h 52m 41s
True Declination
0° 00' 00"
Sunlit
Object was in daylight at epoch
Visualization orbit readout
Latitude
Unknown
Longitude
Unknown
Altitude
Unknown
Speed
Unknown
Apparent Right ascension
Unknown
Apparent Declination
Unknown
Sunlit
N/A
Visualization observer readout
Local Sidereal Time
18:12:59
Azimuth
Unknown
Elevation
Unknown
Doppler factor
Unknown
Orbital elements
Apogee altitude
460.745 km
Perigee altitude
459.241 km
Semi-major axis
6,838.13 km
Eccentricity
0.00011
Inclination
53.1605°
RAAN
73.1734°
Arg. of periapsis
86.9586°
True anomaly
273.14171°
Mean anomaly
273.1543°
Eccentric anomaly
273.14801°
Mean motion
3.83828 °/min
Orbital period
93.79 mins
BSTAR
0.000029367
Loading maneuver chart data...
Computing Atmospheric mass density...
Loading historical data...
Loading historical data...
Loading historical data...
Loading historical data...
Loading historical data...
Loading historical data...
Loading historical data...

Documentation

Showing up to 5 results
|